Valladolid Airport, Spain

5:17 AM CEST on September 20, 2017 (GMT +0200)
Villanubla

Weather History for LEVD - November, 2012

Change the Weather History Date:

Wednesday, November 14, 2012

  Actual Average Record
Temperature  
Mean Temperature 52 °F -  
Max Temperature 64 °F - - ()
Min Temperature 41 °F - - ()
Degree Days  
Heating Degree Days 12    
Growing Degree Days 2 (Base 50)    
Moisture  
Dew Point 47 °F    
Average Humidity 81    
Maximum Humidity 88    
Minimum Humidity 63    
Precipitation  
Precipitation 0.00 in - - ()
Sea Level Pressure  
Sea Level Pressure 30.08 in    
Wind  
Wind Speed 7 mph ()    
Max Wind Speed 13 mph    
Max Gust Speed -    
Visibility 6.2 miles    
Events      
T = Trace of Precipitation, MM = Missing Value Source: Averaged Metar Reports

Daily Weather History Graph

Daily Weather History Graph

Search for Another Location

Airport or City:

Trip Planner

Search our weather history database for the weather conditions in past years. The results will help you decide how hot, cold, wet, or windy it might be!

Date:

Astronomy

Nov. 14, 2012 Rise Set
Actual Time 8:07 AM CET 5:59 PM CET
Civil Twilight 7:37 AM CET 6:29 PM CET
Nautical Twilight 7:04 AM CET 7:02 PM CET
Astronomical Twilight 6:31 AM CET 7:35 PM CET
Moon 8:41 AM CET (11/14) 6:33 PM CET (11/14)
Length of Visible Light 10h 51m
Length of Day
9h 51m
New Moon, 0% of the Moon is Illuminated
Nov 14
New Moon
Nov 20
First Quarter
Nov 28
Full
Dec 6
Last Quarter
Dec 13
New

Hourly Weather History & Observations

Time (CET) Temp. Windchill Dew Point Humidity Pressure Visibility Wind Dir Wind Speed Gust Speed Precip Events Conditions
6:00 AM 41.0 °F 35.2 °F 37.4 °F 87% 30.09 in - East 9.2 mph - N/A   Clear
6:30 AM 41.0 °F 35.8 °F 35.6 °F 81% 30.09 in - East 8.1 mph - N/A   Clear
7:00 AM 41.0 °F 39.0 °F 37.4 °F 87% 30.09 in 6.2 mi East 3.5 mph - N/A   Mostly Cloudy
7:30 AM 41.0 °F 37.1 °F 37.4 °F 87% 30.09 in 6.2 mi East 5.8 mph - N/A   Mostly Cloudy
8:00 AM 41.0 °F 38.0 °F 37.4 °F 87% 30.09 in 6.2 mi East 4.6 mph - N/A   Partly Cloudy
8:30 AM 42.8 °F 37.5 °F 39.2 °F 87% 30.09 in - East 9.2 mph - N/A   Clear
9:00 AM 44.6 °F 40.7 °F 41.0 °F 87% 30.09 in - East 6.9 mph - N/A   Clear
9:30 AM 46.4 °F 42.9 °F 42.8 °F 87% 30.09 in - East 6.9 mph - N/A   Clear
10:00 AM 48.2 °F - 44.6 °F 87% 30.12 in - East 9.2 mph - N/A   Clear
10:30 AM 50.0 °F - 46.4 °F 87% 30.12 in - East 10.4 mph - N/A   Clear
11:00 AM 51.8 °F - 46.4 °F 82% 30.09 in - East 9.2 mph - N/A   Clear
11:30 AM 53.6 °F - 48.2 °F 82% 30.09 in - East 6.9 mph - N/A   Clear
12:00 PM 55.4 °F - 48.2 °F 77% 30.12 in - East 8.1 mph - N/A   Clear
12:30 PM 57.2 °F - 50.0 °F 77% 30.09 in - East 5.8 mph - N/A   Clear
1:00 PM 59.0 °F - 50.0 °F 72% 30.09 in - ESE 8.1 mph - N/A   Clear
1:30 PM 60.8 °F - 51.8 °F 72% 30.06 in - East 5.8 mph - N/A   Clear
2:00 PM 62.6 °F - 50.0 °F 63% 30.06 in - East 6.9 mph - N/A   Clear
2:30 PM 62.6 °F - 51.8 °F 68% 30.06 in - ESE 8.1 mph - N/A   Clear
3:00 PM 62.6 °F - 50.0 °F 63% 30.06 in 6.2 mi ESE 9.2 mph - N/A   Partly Cloudy
3:30 PM 64.4 °F - 51.8 °F 64% 30.06 in 6.2 mi East 8.1 mph - N/A   Partly Cloudy
4:00 PM 62.6 °F - 51.8 °F 68% 30.04 in 6.2 mi East 10.4 mph - N/A   Partly Cloudy
4:30 PM 60.8 °F - 51.8 °F 72% 30.06 in 6.2 mi East 12.7 mph - N/A   Partly Cloudy
5:00 PM 60.8 °F - 51.8 °F 72% 30.06 in 6.2 mi East 9.2 mph - N/A   Scattered Clouds
5:30 PM 59.0 °F - 51.8 °F 77% 30.06 in - East 8.1 mph - N/A   Clear
6:00 PM 57.2 °F - 50.0 °F 77% 30.06 in - East 8.1 mph - N/A   Clear
6:30 PM 55.4 °F - 50.0 °F 82% 30.06 in - ENE 6.9 mph - N/A   Clear
7:00 PM 53.6 °F - 48.2 °F 82% 30.06 in - ENE 6.9 mph - N/A   Clear
7:30 PM 53.6 °F - 50.0 °F 88% 30.06 in - East 8.1 mph - N/A   Clear
8:00 PM 53.6 °F - 50.0 °F 88% 30.06 in - East 8.1 mph - N/A   Clear
8:30 PM 53.6 °F - 50.0 °F 88% 30.06 in - East 9.2 mph - N/A   Clear
9:00 PM 53.6 °F - 50.0 °F 88% 30.06 in - East 8.1 mph - N/A   Clear
9:30 PM 53.6 °F - 50.0 °F 88% 30.09 in - East 6.9 mph - N/A   Clear
10:00 PM 53.6 °F - 50.0 °F 88% 30.09 in - ESE 6.9 mph - N/A   Clear
10:30 PM 53.6 °F - 50.0 °F 88% 30.09 in - ESE 9.2 mph - N/A   Clear
11:00 PM 53.6 °F - 50.0 °F 88% 30.09 in - ESE 8.1 mph - N/A   Clear